SAULDORF Weather Reports


time (UTC)temp
C
wind
direction
speed
KPH
gust
KPH
rain 1hr
cm
rain 24hr
cm
rain mn
cm
humidity
%
barometer
mb
20260506193215 7 223 24.1 0.0 0.00 0.00 0.74 93 1009.7
20260506190211 8 217 24.1 0.0 0.00 0.00 0.74 92 1009.2
20260506183209 8 221 24.1 0.0 0.00 0.00 0.74 90 1008.9
20260506180216 8 262 24.1 0.0 0.00 0.00 0.74 90 1008.7
20260506173210 8 244 32.2 0.0 0.00 0.00 0.74 90 1008.2
20260506170215 10 221 19.3 0.0 0.00 0.00 0.74 93 1007.7
20260506163210 9 240 24.1 0.0 0.00 0.00 0.74 94 1007.8
20260506160210 8 248 25.7 0.0 0.00 0.00 0.74 94 1007.7
20260506153210 8 240 19.3 0.0 0.00 0.00 0.71 94 1007.8
20260506150210 8 248 27.4 0.0 0.00 0.00 0.58 93 1007.6
20260506143210 9 232 45.1 0.0 0.00 0.00 0.43 92 1007.1
20260506140210 11 238 35.4 0.0 0.00 0.00 0.23 88 1006.0
20260506133211 13 228 24.1 0.0 0.00 0.00 0.03 80 1005.7
20260506130211 14 214 17.7 0.0 0.00 0.00 0.03 73 1005.5
20260506123210 15 227 16.1 0.0 0.00 0.00 0.03 71 1005.5
20260506120210 15 227 12.9 0.0 0.00 0.00 0.03 69 1005.3
20260506113217 15 246 12.9 0.0 0.00 0.00 0.03 73 1005.4
20260506110210 14 211 9.7 0.0 0.00 0.00 0.03 77 1005.7
20260506100213 14 206 8.0 0.0 0.00 0.00 0.03 79 1005.8
20260506093211 14 159 9.7 0.0 0.00 0.00 0.03 78 1006.0
20260506090211 13 157 8.0 0.0 0.00 0.00 0.03 82 1005.9
20260506083211 12 214 8.0 0.0 0.00 0.00 0.03 93 1005.9
20260506080212 11 188 3.2 0.0 0.00 0.00 0.03 96 1005.8
20260506073211 11 196 3.2 0.0 0.00 0.00 0.03 97 1005.9
20260506070212 10 254 3.2 0.0 0.00 0.00 0.03 97 1006.1
20260506060210 7 323 4.8 0.0 0.00 0.00 0.03 96 1005.8
20260506050211 7 326 3.2 0.0 0.00 0.00 0.03 96 1006.1
20260506043211 7 326 6.4 0.0 0.00 0.00 0.03 96 1006.5
20260506040211 6 263 4.8 0.0 0.00 0.00 0.03 95 1006.8
20260506033211 7 263 0.0 0.0 0.00 0.00 0.03 95 1006.7
20260506030212 7 263 4.8 0.0 0.00 0.00 0.03 95 1007.2
20260506023211 8 263 4.8 0.0 0.00 0.00 0.03 95 1007.5
20260506020212 8 263 4.8 0.0 0.00 0.00 0.03 95 1007.7
20260506013211 8 263 4.8 0.0 0.00 0.00 0.00 95 1007.8
20260506010213 8 297 4.8 0.0 0.00 0.00 0.00 95 1008.2
20260506003209 8 269 6.4 0.0 0.00 0.00 0.00 95 1008.1
20260506000211 8 187 0.0 0.0 0.00 0.00 0.00 95 1008.1
20260505233209 8 187 1.6 0.0 0.00 0.00 0.00 95 1008.3
20260505230209 9 276 3.2 0.0 0.00 0.00 0.00 94 1008.4
20260505223210 9 276 4.8 0.0 0.00 0.00 0.00 94 1008.6
20260505213211 9 248 11.3 0.0 0.00 0.00 0.15 93 1008.8
20260505210215 9 227 9.7 0.0 0.00 0.00 0.15 93 1008.8
20260505203209 10 234 16.1 0.0 0.00 0.00 0.15 93 1008.7
20260505200210 10 237 16.1 0.0 0.00 0.00 0.15 93 1008.3